Location: Blue Pit
(43.1414°N, 93.2208°W)
Time: 22:38:58
(UTC+00:00)

Cosmos 540 Rocket - Pass Details

Date: 18 November 2025
Orbit: 735 x 747 km, 74.1° (Epoch: 14 December)

Event Time Altitude Azimuth Distance (km) Brightness Sun altitude
Rises 23:17:30 0° 344° (NNW) 3,197 6.7 -6.1°
Reaches altitude 10° 23:19:58 10° 351° (N) 2,268 5.8 -6.5°
Maximum altitude 23:24:54 46° 65° (ENE) 992 3.7 -7.4°
Drops below altitude 10° 23:29:48 10° 138° (SE) 2,245 5.7 -8.2°
Sets 23:32:13 0° 145° (SE) 3,162 6.5 -8.6°
